Flag for Germany Weather past 2 weeks in Stolberg (Rheinland), North Rhine-Westphalia, Germany

Now
77 °F

Broken clouds.


Feels Like: 79 °F
Forecast: 61 / 80 °F
Wind: 2 mph from North

Location: Noervenich

Current Time: Aug 1, 2014 at 12:13:33 PM

Latest Report: Aug 1, 2014 at 12:01 PM


Visibility: N/A

Pressure: 29.86 "Hg

Humidity: 51%

Dew point: 57 °F

Location of Stolberg (Rheinland)Location

Historic Weather in Stolberg (Rheinland) — Graph

°F

Stolberg (Rheinland) temperature yesterday

Maximum temperature yesterday: 79 °F (at 5:20 PM)
Minimum temperature yesterday: 55 °F (at 6:20 AM)
Average temperature yesterday: 67 °F

Past Weeks' High & Low Weather Summary

 TemperatureHumidityPressure
High93 °F (Jul 18, 5:20 PM)100% (Jul 21, 8:20 AM)30.18 "Hg (Jul 21, 8:20 AM)
Low55 °F (Jul 31, 6:20 AM)28% (Jul 18, 5:20 PM)29.77 "Hg (Jul 20, 3:20 AM)
Average70 °F75%29.94 "Hg
* Reported Jul 17 10:20 AM — Aug 1 10:20 AM, Stolberg (Rheinland), Weather by CustomWeather, © 2014

Note: Actual official high and low records may vary slightly from our data, if they occured in-between our weather recording intervals... More about our weather records

Advertising

Stolberg (Rheinland) weather history for previous 24 hours

 ConditionsComfort  
Time TempWeatherWind HumidityBarometerVisibility
10:20 AM
Aug 1
72 °FPartly sunny.2 mph65%29.89 "HgN/A
9:20 AM68 °FBroken clouds.2 mph73%29.89 "HgN/A
8:20 AM64 °FPartly sunny.2 mph78%29.89 "HgN/A
7:20 AM61 °FPartly sunny.1 mph83%29.89 "HgN/A
6:20 AM57 °FPassing clouds.2 mph94%29.89 "HgN/A
5:20 AM59 °FPassing clouds.1 mph82%29.89 "HgN/A
4:20 AM59 °FPassing clouds.1 mph82%29.89 "HgN/A
3:20 AM59 °FPassing clouds.1 mph88%29.89 "HgN/A
2:20 AM61 °FPassing clouds.3 mph88%29.92 "HgN/A
1:20 AM63 °FPassing clouds.1 mph83%29.92 "HgN/A
12:20 AM63 °FPassing clouds.1 mph83%29.92 "HgN/A
11:20 PM
Jul 31
64 °FPartly cloudy.1 mph73%29.92 "HgN/A
10:20 PM68 °FPartly sunny.No wind69%29.92 "HgN/A
9:20 PM70 °FBroken clouds.No wind64%29.92 "HgN/A
8:20 PM75 °FPartly sunny.2 mph47%29.92 "HgN/A
7:20 PM77 °FScattered clouds.3 mph44%29.92 "HgN/A
6:20 PM79 °FPassing clouds.3 mph42%29.92 "HgN/A
5:20 PM79 °FPassing clouds.3 mph39%29.95 "HgN/A
4:20 PM77 °FScattered clouds.2 mph42%29.95 "HgN/A
3:20 PM77 °FPassing clouds.2 mph42%29.98 "HgN/A
2:20 PM75 °FPassing clouds.2 mph47%29.98 "HgN/A
1:20 PM73 °FPassing clouds.2 mph53%30.01 "HgN/A
12:20 PM70 °FPassing clouds.3 mph64%30.01 "HgN/A
Weather by CustomWeather, © 2014

See weather overviewHow to use our weather pages